Location: Biltmore Gardens
(41.6070°N, 83.4666°W)
Time: 14:26:48
(UTC+00:00)

Cosmos 2112 Rocket - Pass Details

Date: 14 July 2020
Orbit: 756 x 787 km, 74.0° (Epoch: 05 August)

Event Time Altitude Azimuth Distance (km) Brightness Sun altitude
Exits shadow 02:19:12 - 184° (S) 3,176 6.8 -11.6°
Reaches altitude 10° 02:21:24 10° 180° (S) 2,337 6.1 -11.9°
Maximum altitude 02:26:34 54° 104° (ESE) 956 4.2 -12.6°
Drops below altitude 10° 02:31:46 10° 29° (NNE) 2,355 6.7 -13.3°
Sets 02:34:13 0° 25° (NNE) 3,286 7.6 -13.6°
